Volver al catálogo

PSLV-C51 PS4

ActivoSSO
NORAD 47700·ROCKET BODY·🇮🇳 India
Este nombre de satélite aún no ha sido confirmado por fuentes oficiales.

Lanzado Feb 28, 2021 desde Satish Dhawan Space Centre

Loading…

Próximos Pases (próximas 24 horas)

TLE

ActualizadoSource: Space-Track

Época: Sep 14, 2026, 16:19 UTC

1 47700U 21015B   26257.68031188  .00009770  00000-0  20387-3 0  9990
2 47700  97.1135 290.7615 0019581 306.4064  53.5380 15.45530717308231

Sigue PSLV-C51 PS4 en tiempo real con AllMySat

Download on the App Store